SCP
4 5 5 4 4 4 4 4 3 3 3 3 3 3 2 2 2 2 3 4 3 3 3 3 2 1 1 1 1 1 1 1 1 1 1 1 1 1 1 0 0 0 0
4 4 5 4 4 4 4 4 3 3 3 3 3 2 2 2 2 3 3 3 3 3 3 2 2 2 2 1 1 1 1 1 1 1 1 1 1 1 1 1 0 0 0
4 4 4 3 3 3 4 4 4 3 3 3 2 2 2 3 3 3 4 4 3 3 2 2 2 2 2 2 1 1 1 1 1 1 1 1 1 1 1 1 1 0 0
4 4 3 3 3 3 3 4 4 4 4 3 3 3 3 3 4 4 4 4 4 3 3 2 2 2 2 2 2 2 1 2 2 1 1 1 1 1 1 1 1 1 0
4 3 3 3 3 3 3 3 4 4 4 4 4 3 3 3 4 4 4 4 4 3 2 2 2 2 2 2 2 2 2 2 2 2 1 1 1 1 1 1 1 1 1
3 3 3 3 3 3 3 3 3 3 3 3 3 3 3 3 4 5 4 4 3 3 2 3 3 3 2 2 2 2 2 2 2 2 2 2 1 1 1 1 1 1 1
3 3 3 3 3 3 3 3 3 2 2 2 2 2 2 3 3 4 4 4 4 3 3 3 4 3 2 2 2 2 2 2 2 2 2 2 2 2 1 1 1 1 1
2 2 2 2 2 2 2 2 2 2 2 2 1 1 1 2 2 2 3 3 3 3 3 3 3 3 3 2 2 2 3 3 3 3 2 2 2 2 2 1 1 1 1
3 3 3 2 2 2 2 2 2 2 2 1 1 1 1 1 1 2 2 2 2 2 2 2 3 3 3 3 2 2 3 3 3 3 3 3 2 2 2 2 1 1 1
3 3 3 3 3 2 2 2 2 2 1 1 1 1 2 1 1 1 2 2 2 2 2 2 2 3 3 3 3 3 3 3 3 4 3 3 3 2 2 2 2 1 1
3 3 3 3 3 2 2 2 2 2 2 1 1 1 1 1 1 1 1 2 2 2 2 2 2 2 3 3 3 3 2 2 3 4 4 4 3 3 2 2 2 1 1
2 2 2 3 3 2 2 2 2 2 2 1 1 1 1 1 1 1 1 1 1 2 2 2 2 2 3 3 2 2 2 2 2 3 4 4 4 4 3 2 2 2 1
2 2 2 2 2 2 2 2 2 2 2 2 1 1 1 1 1 1 1 1 1 1 2 2 2 2 2 3 2 1 1 1 1 2 3 4 4 4 3 3 2 2 2
1 1 2 2 2 2 2 2 2 2 2 2 1 1 1 2 2 2 2 2 1 1 2 2 2 2 2 2 2 2 1 1 1 1 2 3 4 4 3 3 3 2 2
1 1 1 1 1 1 1 1 1 1 1 1 1 1 1 1 2 2 2 2 2 1 1 2 2 2 2 2 2 2 2 1 1 0 1 1 2 3 3 2 2 2 2
1 0 0 0 1 1 1 1 1 1 1 1 1 1 1 1 1 1 2 2 2 1 1 1 2 2 2 2 2 3 3 2 1 0 0 1 1 2 2 2 1 1 1
1 0 0 0 0 0 0 1 1 0 0 1 1 1 1 1 1 1 1 2 2 2 1 1 2 2 2 2 3 4 3 2 2 1 0 0 0 1 1 1 1 1 1
0 0 0 0 0 0 0 0 0 0 0 1 1 1 1 1 1 1 1 1 1 1 1 1 2 2 2 2 3 3 3 2 2 1 0 0 0 0 0 0 0 0 0
0 0 0 0 0 0 0 0 0 0 0 0 1 1 1 1 1 1 1 1 1 1 1 1 1 2 2 2 2 2 2 2 1 1 0 0 0 0 0 0 0 0 0
0 0 0 1 0 0 0 0 0 0 0 0 0 0 0 0 0 1 1 1 1 1 1 1 1 2 2 2 2 2 2 1 1 1 1 1 1 0 0 0 0 0 0
0 0 1 0 0 0 0 0 0 0 0 0 0 0 0 0 0 0 0 0 0 0 0 1 1 1 2 2 2 2 2 1 1 1 1 1 1 1 1 0 0 0 0
1 1 1 0 0 0 0 0 0 0 0 0 0 0 0 0 0 0 0 0 0 0 0 1 1 1 2 2 2 2 2 1 1 1 1 1 2 2 1 1 0 0 0
1 1 1 1 0 0 0 0 0 0 0 0 0 0 0 0 0 0 0 0 0 0 0 0 1 1 1 2 2 2 2 1 1 1 1 1 2 2 1 1 0 0 0
1 1 1 1 1 0 0 0 0 0 0 0 0 0 0 0 0 0 0 0 0 0 0 0 1 1 1 1 2 2 1 1 1 1 1 1 1 1 1 1 0 0 0
2 1 1 1 1 1 0 0 0 0 0 0 0 0 0 0 0 0 0 0 0 0 0 0 0 0 1 1 1 2 1 1 1 1 1 1 1 1 1 1 0 0 0
2 2 1 1 1 1 0 0 0 0 0 0 0 0 0 0 0 0 0 0 0 0 0 0 0 0 1 1 1 2 1 1 1 1 1 1 1 1 1 1 1 0 0
Wind_Speed
1 0 0 0 1 1 2 3 3 4 4 4 4 5 5 5 4 1 4 12 14 15 16 16 16 16 16 16 16 15 15 15 14 13 13 13 12 12 12 11 11 10 10
1 1 2 2 2 2 1 2 3 3 4 3 5 5 5 5 4 3 4 8 13 15 15 16 16 17 18 18 17 17 16 16 15 14 14 13 13 13 13 12 12 11 11
1 1 2 2 2 2 3 2 4 4 4 5 6 6 6 5 5 5 4 4 7 12 15 16 17 17 18 19 19 19 18 17 16 15 15 14 13 13 13 13 13 12 11
1 2 2 2 2 2 3 3 4 4 4 4 4 5 5 4 6 6 5 5 5 6 11 17 18 18 19 20 20 20 19 18 17 17 17 16 15 15 14 14 14 13 12
1 2 2 2 2 3 3 5 3 3 4 4 4 5 5 6 6 8 7 7 6 6 6 12 19 19 20 21 20 21 20 20 19 19 19 18 18 16 16 15 15 14 14
1 1 3 3 3 3 3 3 4 3 4 4 5 6 5 6 5 6 8 8 8 10 9 9 10 14 20 19 19 20 21 21 20 20 21 20 19 18 17 17 16 15 15
1 2 3 1 2 3 3 3 3 4 4 3 3 4 5 7 7 6 6 6 8 10 9 9 8 7 9 18 19 20 21 22 22 22 21 21 21 19 19 18 17 16 16
2 3 2 2 2 2 3 3 2 2 3 3 3 3 3 4 5 8 7 7 8 7 8 11 9 9 7 6 12 21 22 23 23 23 22 21 21 20 20 19 19 18 17
2 2 3 2 3 3 2 2 2 3 3 3 3 3 3 3 2 2 5 6 6 5 5 6 8 9 10 7 8 17 22 21 22 24 24 22 21 20 20 20 20 19 19
3 2 2 2 2 3 4 4 2 2 3 4 3 4 4 2 2 3 3 4 5 5 5 6 6 8 9 8 9 13 19 21 22 23 24 23 23 22 21 21 22 21 20
3 3 2 1 2 3 4 4 4 4 3 4 3 3 3 3 4 3 4 3 3 3 5 5 4 5 7 7 7 11 17 20 21 23 23 23 23 23 23 23 23 23 22
3 3 3 2 3 3 4 4 4 5 4 5 4 4 4 3 3 3 4 3 3 4 4 4 4 4 4 6 10 13 16 19 20 22 22 22 23 23 24 24 24 24 24
4 5 6 4 4 4 5 5 5 5 5 5 5 4 4 4 3 3 3 3 4 3 3 3 3 4 5 5 6 10 12 16 18 19 20 20 21 22 22 23 24 24 23
4 5 5 4 5 5 6 5 5 6 5 5 7 5 4 4 4 4 3 3 3 4 4 4 3 4 4 4 5 9 8 13 15 16 17 19 19 20 20 21 22 22 21
6 6 6 6 6 5 5 6 4 5 6 5 5 6 5 4 4 4 3 3 3 4 4 3 2 2 2 2 5 5 5 10 13 15 16 17 18 19 19 20 20 20 19
5 5 6 6 6 6 6 5 5 5 6 6 5 6 5 5 4 4 4 4 4 4 5 3 2 2 2 2 4 4 5 9 12 14 15 16 17 18 18 19 19 19 19
5 5 5 5 6 6 6 5 6 7 7 6 6 7 6 6 5 4 4 4 4 4 5 4 3 2 2 2 2 3 3 5 7 13 15 16 16 17 18 18 18 19 19
5 6 5 6 6 6 5 6 7 7 6 7 6 7 7 6 6 5 5 5 5 5 4 5 4 3 3 3 3 4 4 5 5 10 14 15 16 17 17 18 18 18 18
5 6 6 6 6 6 6 6 6 6 6 7 7 7 7 7 6 5 5 5 5 6 4 4 5 4 3 3 3 3 4 3 4 6 10 13 15 16 16 17 17 17 17
6 6 5 6 6 6 7 6 6 6 6 6 7 7 7 7 7 6 6 6 6 6 5 5 4 4 3 4 3 3 3 3 3 4 5 6 9 13 15 15 16 17 17
7 6 6 6 6 7 5 4 5 8 7 7 7 7 8 9 8 7 7 5 5 4 4 4 5 4 4 3 3 3 4 3 3 3 3 3 4 6 8 12 14 16 16
6 6 6 7 7 7 4 4 4 6 7 8 8 8 8 10 11 12 13 11 9 7 6 5 5 5 5 4 3 3 3 3 3 3 3 2 3 4 5 6 11 14 15
6 6 6 7 6 5 6 6 6 6 8 8 8 8 9 11 8 6 8 11 12 13 12 8 7 6 5 4 3 3 3 4 3 3 2 2 2 2 2 5 13 14 15
5 5 6 7 6 6 5 6 7 7 9 9 8 8 8 8 9 7 6 6 7 8 10 10 8 7 7 5 4 4 3 3 1 2 2 2 2 2 2 3 9 13 14
6 6 6 6 6 5 5 7 6 6 7 8 8 8 8 7 6 6 6 6 6 6 8 10 10 10 10 8 6 3 3 3 3 2 2 2 2 2 2 3 5 10 12
6 7 6 6 6 6 5 7 7 6 7 7 6 6 7 6 5 5 5 6 6 5 5 5 5 7 8 8 9 7 5 4 3 3 3 2 3 3 2 2 4 5 7
Wind_Direction
231 273 278 267 262 232 200 226 228 230 237 241 241 229 234 248 263 238 159 178 185 183 183 187 193 197 198 197 195 194 195 194 190 187 187 186 182 178 176 175 171 167 166
214 234 233 230 246 249 244 237 240 236 232 235 249 253 251 248 253 228 183 191 197 191 190 193 198 202 204 202 201 198 197 197 194 191 191 190 188 184 183 182 179 176 174
225 248 252 240 242 248 248 246 254 242 236 228 232 241 247 247 254 249 223 199 200 204 202 202 204 206 207 207 206 204 200 198 195 193 193 192 190 187 188 188 186 183 181
246 252 253 249 257 251 234 236 239 247 243 238 234 237 239 237 241 241 238 225 210 208 213 213 211 210 210 211 211 208 204 200 198 196 195 194 193 192 192 192 190 187 186
243 254 260 250 251 255 250 256 236 230 243 240 239 237 235 231 227 231 227 228 226 216 210 214 214 212 214 214 214 212 208 204 201 200 199 199 197 195 195 194 194 191 190
267 267 257 247 251 253 256 254 261 247 243 240 249 255 243 235 222 222 224 223 219 218 215 215 209 214 215 216 215 213 210 208 205 204 203 202 201 199 197 196 196 195 194
350 289 299 287 251 252 257 260 259 264 252 234 240 260 251 235 223 221 219 226 222 215 212 209 201 202 209 216 216 214 212 210 208 206 206 204 204 201 199 199 198 198 198
331 310 340 320 328 310 280 268 256 265 276 258 238 257 266 255 230 224 210 217 227 220 213 214 203 199 203 200 213 213 214 213 210 208 207 205 204 203 201 201 201 200 200
324 322 322 322 327 310 303 296 271 265 272 279 247 245 259 266 303 255 227 223 217 215 211 207 206 201 204 205 202 211 215 215 213 212 209 207 204 203 202 203 203 203 203
298 289 282 299 321 313 310 301 331 299 284 280 271 246 245 268 279 306 292 254 229 221 223 222 216 202 205 201 202 203 211 214 214 214 211 208 206 205 204 205 206 206 205
288 283 292 346 332 303 311 322 323 312 297 288 288 284 269 253 232 240 276 286 276 235 218 216 218 207 204 205 205 205 205 212 215 216 213 210 209 208 207 207 210 210 210
324 352 9 16 321 312 321 313 304 294 286 291 297 296 287 270 249 243 253 261 259 253 226 208 206 205 207 204 214 214 202 208 214 215 213 211 210 209 207 209 212 213 213
340 16 11 357 338 326 310 297 296 284 280 278 274 270 277 279 278 266 267 275 273 275 258 218 203 201 216 207 209 209 204 204 209 210 212 212 210 209 207 208 211 214 215
336 346 343 336 321 310 305 315 309 293 283 277 272 270 272 270 271 270 264 272 282 277 267 257 225 203 208 197 198 201 205 204 206 207 211 212 210 207 206 207 209 211 213
324 347 338 324 315 310 305 302 288 289 289 280 273 271 261 267 271 267 262 246 247 262 264 264 252 213 196 183 183 195 205 203 206 207 211 212 210 207 205 205 206 207 209
322 316 311 310 308 306 300 294 292 287 288 283 272 265 263 260 264 269 267 258 242 243 258 268 263 260 224 207 187 201 214 209 208 209 210 214 213 209 207 205 205 205 206
313 305 304 304 302 296 294 295 289 283 281 280 280 276 267 262 262 269 268 265 257 244 250 258 263 268 232 222 200 209 214 207 211 212 210 213 213 212 208 206 204 204 204
309 307 305 302 298 299 301 297 293 296 296 293 288 284 279 272 260 257 262 264 263 259 252 256 260 261 249 226 217 213 226 228 220 211 210 212 212 211 208 206 205 203 202
305 303 301 300 298 298 294 289 284 288 291 290 289 286 282 277 269 259 256 259 263 265 254 249 252 249 246 235 224 225 229 231 237 217 208 211 210 208 206 204 203 201 201
302 297 297 298 297 296 292 294 298 295 287 286 286 285 281 274 270 266 262 252 253 258 266 262 249 245 245 239 217 216 228 222 230 230 212 202 201 203 204 202 201 198 197
303 304 305 302 299 293 302 333 321 307 310 304 294 287 282 279 273 261 261 257 262 260 261 262 257 246 237 230 222 214 220 213 224 211 193 192 186 191 197 201 201 197 193
299 299 300 299 297 301 326 325 305 307 301 295 291 287 285 276 262 248 243 244 243 249 251 251 254 251 247 242 236 228 217 210 228 199 184 202 187 189 188 191 189 187 185
302 301 298 295 293 292 282 278 272 284 286 283 283 284 285 285 293 277 251 240 240 242 240 242 249 251 253 250 242 236 234 227 225 195 172 206 188 187 174 173 170 173 176
300 295 293 293 292 290 272 262 266 271 278 276 274 274 273 276 282 286 281 266 249 240 233 231 231 238 244 235 229 230 231 239 237 217 188 199 182 159 128 134 157 163 167
296 293 290 287 287 284 259 250 251 281 279 280 280 281 279 276 275 274 267 264 260 258 255 242 224 224 224 222 214 207 215 212 220 219 195 178 161 128 118 122 138 150 155
286 288 287 285 285 285 254 239 235 273 287 292 290 284 282 284 286 278 268 265 261 260 267 272 245 226 219 213 208 207 207 212 208 211 195 168 159 137 129 121 136 143 141